This is the latest recevied weather packets stored in our database for station/object W2EH. If no packets are shown the sender has not sent any weather packets the latest 10 day(s).
| Time | Temp. | Humidity | Pressure | Rain* | Wind** | Luminosity | Snow |
|---|---|---|---|---|---|---|---|
| 1777311895 | 30.56° C | 64% | 1008.9 hPa | 0 mm | - | 892 W/m² | - |
| 1777311592 | 30° C | 64% | 1009.1 hPa | 0 mm | - | 806 W/m² | - |
| 1777311290 | 30° C | 66% | 1009.1 hPa | 0 mm | - | 415 W/m² | - |
| 1777310987 | 30° C | 65% | 1009 hPa | 0 mm | - | 415 W/m² | - |
| 1777310685 | 30° C | 64% | 1009.2 hPa | 0 mm | - | 374 W/m² | - |
| 1777310382 | 29.44° C | 66% | 1009.2 hPa | 0 mm | - | 171 W/m² | - |
| 1777310078 | 29.44° C | 66% | 1009.2 hPa | 0 mm | - | 459 W/m² | - |
| 1777309777 | 29.44° C | 67% | 1009.2 hPa | 0 mm | - | 258 W/m² | - |
| 1777309475 | 29.44° C | 67% | 1009.6 hPa | 0 mm | - | 140 W/m² | - |
| 1777309171 | 28.89° C | 67% | 1009.4 hPa | 0 mm | - | 160 W/m² | - |
| 1777308870 | 28.89° C | 68% | 1009.3 hPa | 0 mm | - | 484 W/m² | - |
| 1777308564 | 28.89° C | 69% | 1009.4 hPa | 0 mm | - | 148 W/m² | - |
| 1777308260 | 28.33° C | 69% | 1009.2 hPa | 0 mm | - | 125 W/m² | - |
| 1777307956 | 28.33° C | 71% | 1009.3 hPa | 0 mm | - | 124 W/m² | - |
| 1777307654 | 28.33° C | 72% | 1009.2 hPa | 0 mm | - | 167 W/m² | - |
| 1777307350 | 28.33° C | 71% | 1009.3 hPa | 0 mm | - | 227 W/m² | - |
| 1777307048 | 28.33° C | 72% | 1009.2 hPa | 0 mm | - | 144 W/m² | - |
| 1777306745 | 27.78° C | 71% | 1009.3 hPa | 0 mm | - | 111 W/m² | - |
| 1777306443 | 27.78° C | 74% | 1009.5 hPa | 0 mm | - | 205 W/m² | - |
| 1777306137 | 27.78° C | 74% | 1009.6 hPa | 0 mm | - | 165 W/m² | - |
| 1777305833 | 27.22° C | 75% | 1009.5 hPa | 0 mm | - | 248 W/m² | - |
| 1777305529 | 27.22° C | 76% | 1009.7 hPa | 0 mm | - | 123 W/m² | - |
| 1777305225 | 27.22° C | 77% | 1009.3 hPa | 0 mm | - | 221 W/m² | - |
| 1777304919 | 27.22° C | 77% | 1009.6 hPa | 0 mm | - | 182 W/m² | - |
| 1777304616 | 27.22° C | 75% | 1009.3 hPa | 0 mm | - | 186 W/m² | - |
* Rain latest hour (hover to see other rain measurements)
** Current wind speed in m/s (hover to see current wind gust speed)